| time (UTC) | temp F | wind direction | speed MPH | gust MPH | rain 1hr in | rain 24hr in | rain mn in | humidity % | barometer mb |
| 20260505041646 | 67 | 148 | 2.0 | 3.0 | 0.00 | 0.00 | 0.00 | 70 | 1013.9 |
| 20260505041147 | 67 | 141 | 3.0 | 4.0 | 0.00 | 0.00 | 0.00 | 70 | 1013.9 |
| 20260505040647 | 67 | 135 | 3.0 | 4.0 | 0.00 | 0.00 | 0.00 | 70 | 1013.9 |
| 20260505040146 | 67 | 150 | 2.0 | 4.0 | 0.00 | 0.00 | 0.00 | 69 | 1013.9 |
| 20260505035647 | 67 | 147 | 3.0 | 3.0 | 0.00 | 0.00 | 0.00 | 69 | 1013.9 |
| 20260505035147 | 68 | 155 | 2.0 | 4.0 | 0.00 | 0.00 | 0.00 | 69 | 1014.2 |
| 20260505034647 | 68 | 152 | 2.0 | 4.0 | 0.00 | 0.00 | 0.00 | 68 | 1013.9 |
| 20260505034148 | 68 | 157 | 1.0 | 5.0 | 0.00 | 0.00 | 0.00 | 68 | 1013.5 |
| 20260505033646 | 68 | 144 | 3.0 | 5.0 | 0.00 | 0.00 | 0.00 | 68 | 1013.5 |
| 20260505033148 | 68 | 163 | 4.0 | 5.0 | 0.00 | 0.00 | 0.00 | 68 | 1013.9 |
| 20260505032647 | 68 | 162 | 4.0 | 7.0 | 0.00 | 0.00 | 0.00 | 67 | 1013.9 |
| 20260505032149 | 68 | 127 | 6.0 | 8.0 | 0.00 | 0.00 | 0.00 | 67 | 1013.5 |
| 20260505031646 | 68 | 142 | 5.0 | 7.0 | 0.00 | 0.00 | 0.00 | 67 | 1013.9 |
| 20260505031147 | 68 | 151 | 4.0 | 7.0 | 0.00 | 0.00 | 0.00 | 67 | 1013.5 |
| 20260505030648 | 68 | 168 | 3.0 | 6.0 | 0.00 | 0.00 | 0.00 | 67 | 1013.9 |
| 20260505030148 | 68 | 166 | 3.0 | 8.0 | 0.00 | 0.00 | 0.00 | 66 | 1013.5 |
| 20260505025649 | 68 | 143 | 4.0 | 9.0 | 0.00 | 0.00 | 0.00 | 66 | 1013.9 |
| 20260505025148 | 68 | 147 | 5.0 | 8.0 | 0.00 | 0.00 | 0.00 | 66 | 1013.9 |
| 20260505024648 | 68 | 170 | 3.0 | 6.0 | 0.00 | 0.00 | 0.00 | 66 | 1013.9 |
| 20260505024149 | 68 | 128 | 6.0 | 8.0 | 0.00 | 0.00 | 0.00 | 65 | 1013.9 |
| 20260505023646 | 68 | 135 | 4.0 | 8.0 | 0.00 | 0.00 | 0.00 | 65 | 1013.9 |
| 20260505023148 | 68 | 147 | 2.0 | 8.0 | 0.00 | 0.00 | 0.00 | 65 | 1013.9 |
| 20260505022649 | 68 | 152 | 4.0 | 8.0 | 0.00 | 0.00 | 0.00 | 65 | 1013.9 |
| 20260505022147 | 69 | 149 | 6.0 | 9.0 | 0.00 | 0.00 | 0.00 | 65 | 1013.5 |
| 20260505021649 | 69 | 141 | 6.0 | 9.0 | 0.00 | 0.00 | 0.00 | 64 | 1013.9 |
| 20260505021149 | 69 | 145 | 3.0 | 7.0 | 0.00 | 0.00 | 0.00 | 64 | 1013.9 |
| 20260505020650 | 68 | 156 | 4.0 | 10.0 | 0.00 | 0.00 | 0.00 | 64 | 1013.5 |
| 20260505020146 | 69 | 162 | 5.0 | 7.0 | 0.00 | 0.00 | 0.00 | 65 | 1013.5 |
| 20260505015647 | 69 | 160 | 3.0 | 5.0 | 0.00 | 0.00 | 0.00 | 64 | 1013.5 |
| 20260505015146 | 69 | 145 | 3.0 | 7.0 | 0.00 | 0.00 | 0.00 | 63 | 1013.5 |
| 20260505014646 | 69 | 153 | 3.0 | 9.0 | 0.00 | 0.00 | 0.00 | 63 | 1013.5 |
| 20260505014146 | 69 | 150 | 4.0 | 6.0 | 0.00 | 0.00 | 0.00 | 62 | 1013.2 |
| 20260505013647 | 69 | 146 | 3.0 | 7.0 | 0.00 | 0.00 | 0.00 | 62 | 1013.5 |
| 20260505013147 | 69 | 136 | 3.0 | 7.0 | 0.00 | 0.00 | 0.00 | 62 | 1013.2 |
| 20260505012646 | 69 | 154 | 4.0 | 5.0 | 0.00 | 0.00 | 0.00 | 62 | 1013.5 |
| 20260505012146 | 70 | 163 | 3.0 | 4.0 | 0.00 | 0.00 | 0.00 | 61 | 1013.5 |
| 20260505011648 | 70 | 164 | 5.0 | 6.0 | 0.00 | 0.00 | 0.00 | 61 | 1013.5 |
| 20260505011147 | 70 | 158 | 5.0 | 6.0 | 0.00 | 0.00 | 0.00 | 61 | 1013.5 |
| 20260505010647 | 70 | 166 | 5.0 | 6.0 | 0.00 | 0.00 | 0.00 | 60 | 1013.5 |
| 20260505010148 | 70 | 140 | 5.0 | 8.0 | 0.00 | 0.00 | 0.00 | 59 | 1013.5 |
| 20260505005648 | 70 | 156 | 5.0 | 7.0 | 0.00 | 0.00 | 0.00 | 59 | 1013.5 |
| 20260505005148 | 71 | 158 | 3.0 | 6.0 | 0.00 | 0.00 | 0.00 | 58 | 1013.5 |
| 20260505004650 | 71 | 142 | 3.0 | 6.0 | 0.00 | 0.00 | 0.00 | 58 | 1013.5 |
| 20260505004146 | 71 | 149 | 6.0 | 7.0 | 0.00 | 0.00 | 0.00 | 58 | 1013.5 |
| 20260505003648 | 71 | 166 | 6.0 | 8.0 | 0.00 | 0.00 | 0.00 | 57 | 1013.5 |
| 20260505003147 | 71 | 138 | 4.0 | 8.0 | 0.00 | 0.00 | 0.00 | 57 | 1013.5 |
| 20260505002646 | 71 | 161 | 6.0 | 8.0 | 0.00 | 0.00 | 0.00 | 57 | 1013.5 |
| 20260505002146 | 72 | 159 | 3.0 | 8.0 | 0.00 | 0.00 | 0.00 | 56 | 1013.5 |
| 20260505001646 | 72 | 159 | 4.0 | 8.0 | 0.00 | 0.00 | 0.00 | 54 | 1013.9 |
| 20260505001147 | 72 | 177 | 4.0 | 8.0 | 0.00 | 0.00 | 0.00 | 54 | 1013.9 |
| 20260505000646 | 72 | 164 | 7.0 | 9.0 | 0.00 | 0.00 | 0.00 | 54 | 1013.5 |
| 20260505000153 | 72 | 153 | 5.0 | 8.0 | 0.00 | 0.00 | 0.00 | 53 | 1013.5 |
| 20260504235646 | 72 | 159 | 4.0 | 8.0 | 0.00 | 0.00 | 0.00 | 52 | 1013.5 |
| 20260504235146 | 73 | 153 | 6.0 | 11.0 | 0.00 | 0.00 | 0.00 | 52 | 1013.5 |
| 20260504234647 | 73 | 149 | 6.0 | 10.0 | 0.00 | 0.00 | 0.00 | 51 | 1013.5 |
| 20260504234146 | 73 | 170 | 7.0 | 10.0 | 0.00 | 0.00 | 0.00 | 51 | 1013.9 |
| 20260504233647 | 73 | 182 | 7.0 | 11.0 | 0.00 | 0.00 | 0.00 | 51 | 1013.9 |
| 20260504233148 | 73 | 127 | 6.0 | 10.0 | 0.00 | 0.00 | 0.00 | 52 | 1013.9 |
| 20260504232646 | 73 | 161 | 8.0 | 10.0 | 0.00 | 0.00 | 0.00 | 50 | 1013.9 |
| 20260504232146 | 74 | 173 | 8.0 | 11.0 | 0.00 | 0.00 | 0.00 | 49 | 1013.9 |
| 20260504231157 | 74 | 172 | 7.0 | 10.0 | 0.00 | 0.00 | 0.00 | 49 | 1014.2 |
| 20260504230646 | 74 | 165 | 8.0 | 14.0 | 0.00 | 0.00 | 0.00 | 48 | 1014.2 |
| 20260504230147 | 74 | 195 | 9.0 | 14.0 | 0.00 | 0.00 | 0.00 | 48 | 1014.2 |
| 20260504225647 | 74 | 186 | 8.0 | 11.0 | 0.00 | 0.00 | 0.00 | 48 | 1014.2 |
| 20260504225147 | 74 | 173 | 10.0 | 11.0 | 0.00 | 0.00 | 0.00 | 47 | 1014.2 |
| 20260504224646 | 74 | 163 | 6.0 | 12.0 | 0.00 | 0.00 | 0.00 | 47 | 1014.2 |
| 20260504224147 | 74 | 150 | 6.0 | 13.0 | 0.00 | 0.00 | 0.00 | 46 | 1014.2 |
| 20260504223646 | 74 | 164 | 4.0 | 11.0 | 0.00 | 0.00 | 0.00 | 46 | 1014.2 |
| 20260504223146 | 75 | 153 | 9.0 | 13.0 | 0.00 | 0.00 | 0.00 | 45 | 1014.2 |
| 20260504222647 | 74 | 130 | 3.0 | 7.0 | 0.00 | 0.00 | 0.00 | 45 | 1014.2 |
| 20260504222146 | 75 | 165 | 10.0 | 13.0 | 0.00 | 0.00 | 0.00 | 45 | 1014.2 |
| 20260504221646 | 75 | 172 | 9.0 | 12.0 | 0.00 | 0.00 | 0.00 | 45 | 1014.2 |
| 20260504221147 | 75 | 174 | 8.0 | 11.0 | 0.00 | 0.00 | 0.00 | 44 | 1014.6 |
| 20260504220646 | 75 | 169 | 7.0 | 11.0 | 0.00 | 0.00 | 0.00 | 43 | 1014.6 |
| 20260504220147 | 75 | 164 | 8.0 | 11.0 | 0.00 | 0.00 | 0.00 | 44 | 1014.6 |
| 20260504215646 | 75 | 186 | 5.0 | 13.0 | 0.00 | 0.00 | 0.00 | 43 | 1014.6 |
| 20260504215146 | 76 | 180 | 7.0 | 9.0 | 0.00 | 0.00 | 0.00 | 43 | 1014.6 |
| 20260504214646 | 75 | 149 | 8.0 | 13.0 | 0.00 | 0.00 | 0.00 | 43 | 1014.2 |
| 20260504214147 | 75 | 179 | 9.0 | 12.0 | 0.00 | 0.00 | 0.00 | 44 | 1014.2 |
| 20260504213646 | 75 | 165 | 6.0 | 13.0 | 0.00 | 0.00 | 0.00 | 44 | 1014.2 |
| 20260504213146 | 75 | 169 | 11.0 | 13.0 | 0.00 | 0.00 | 0.00 | 44 | 1014.6 |
| 20260504212647 | 75 | 143 | 9.0 | 12.0 | 0.00 | 0.00 | 0.00 | 44 | 1014.6 |
| 20260504212147 | 75 | 168 | 11.0 | 13.0 | 0.00 | 0.00 | 0.00 | 44 | 1014.6 |
| 20260504211647 | 75 | 207 | 8.0 | 10.0 | 0.00 | 0.00 | 0.00 | 43 | 1014.9 |
| 20260504211147 | 75 | 180 | 7.0 | 10.0 | 0.00 | 0.00 | 0.00 | 43 | 1014.9 |
| 20260504210648 | 75 | 195 | 8.0 | 13.0 | 0.00 | 0.00 | 0.00 | 42 | 1014.6 |
| 20260504210147 | 75 | 154 | 11.0 | 12.0 | 0.00 | 0.00 | 0.00 | 42 | 1014.6 |
| 20260504205647 | 76 | 160 | 10.0 | 13.0 | 0.00 | 0.00 | 0.00 | 41 | 1014.9 |
| 20260504205150 | 75 | 180 | 12.0 | 14.0 | 0.00 | 0.00 | 0.00 | 40 | 1014.9 |
| 20260504204647 | 75 | 159 | 7.0 | 13.0 | 0.00 | 0.00 | 0.00 | 40 | 1014.9 |
| 20260504204147 | 75 | 181 | 8.0 | 11.0 | 0.00 | 0.00 | 0.00 | 41 | 1015.2 |
| 20260504203646 | 75 | 164 | 13.0 | 14.0 | 0.00 | 0.00 | 0.00 | 40 | 1015.2 |
| 20260504203146 | 75 | 180 | 9.0 | 14.0 | 0.00 | 0.00 | 0.00 | 40 | 1015.2 |
| 20260504202650 | 76 | 155 | 7.0 | 15.0 | 0.00 | 0.00 | 0.00 | 38 | 1015.2 |
| 20260504202146 | 75 | 120 | 4.0 | 8.0 | 0.00 | 0.00 | 0.00 | 40 | 1015.2 |
| 20260504201647 | 76 | 169 | 7.0 | 12.0 | 0.00 | 0.00 | 0.00 | 38 | 1015.6 |
| 20260504201146 | 76 | 176 | 4.0 | 13.0 | 0.00 | 0.00 | 0.00 | 38 | 1015.6 |
| 20260504200647 | 75 | 246 | 8.0 | 12.0 | 0.00 | 0.00 | 0.00 | 39 | 1015.6 |
| 20260504200146 | 76 | 178 | 7.0 | 11.0 | 0.00 | 0.00 | 0.00 | 39 | 1015.9 |
| 20260504195646 | 77 | 180 | 9.0 | 14.0 | 0.00 | 0.00 | 0.00 | 39 | 1015.6 |
| 20260504195147 | 75 | 42 | 5.0 | 14.0 | 0.00 | 0.00 | 0.00 | 39 | 1015.9 |
| 20260504194646 | 76 | 240 | 5.0 | 15.0 | 0.00 | 0.00 | 0.00 | 37 | 1015.9 |
| 20260504194146 | 76 | 202 | 6.0 | 13.0 | 0.00 | 0.00 | 0.00 | 38 | 1015.9 |
| 20260504193646 | 75 | 185 | 4.0 | 12.0 | 0.00 | 0.00 | 0.00 | 38 | 1016.3 |
| 20260504193147 | 76 | 186 | 5.0 | 11.0 | 0.00 | 0.00 | 0.00 | 40 | 1015.9 |
| 20260504192647 | 76 | 175 | 9.0 | 12.0 | 0.00 | 0.00 | 0.00 | 39 | 1015.9 |
| 20260504192146 | 76 | 194 | 12.0 | 13.0 | 0.00 | 0.00 | 0.00 | 39 | 1015.9 |
| 20260504191648 | 75 | 159 | 10.0 | 16.0 | 0.00 | 0.00 | 0.00 | 40 | 1016.3 |
| 20260504191146 | 75 | 193 | 8.0 | 13.0 | 0.00 | 0.00 | 0.00 | 40 | 1015.9 |
| 20260504190647 | 75 | 169 | 9.0 | 14.0 | 0.00 | 0.00 | 0.00 | 40 | 1016.3 |
| 20260504190149 | 76 | 170 | 10.0 | 17.0 | 0.00 | 0.00 | 0.00 | 40 | 1016.6 |
| 20260504185646 | 75 | 171 | 5.0 | 11.0 | 0.00 | 0.00 | 0.00 | 40 | 1016.6 |
| 20260504185147 | 75 | 183 | 13.0 | 17.0 | 0.00 | 0.00 | 0.00 | 40 | 1016.6 |
| 20260504184646 | 75 | 171 | 7.0 | 13.0 | 0.00 | 0.00 | 0.00 | 40 | 1016.3 |
| 20260504184147 | 75 | 169 | 7.0 | 12.0 | 0.00 | 0.00 | 0.00 | 40 | 1016.9 |
| 20260504183647 | 75 | 183 | 6.0 | 12.0 | 0.00 | 0.00 | 0.00 | 41 | 1016.6 |
| 20260504183147 | 75 | 159 | 8.0 | 17.0 | 0.00 | 0.00 | 0.00 | 40 | 1016.9 |
| 20260504182647 | 75 | 205 | 6.0 | 12.0 | 0.00 | 0.00 | 0.00 | 42 | 1016.9 |
| 20260504182146 | 75 | 179 | 10.0 | 17.0 | 0.00 | 0.00 | 0.00 | 41 | 1016.9 |
| 20260504181647 | 75 | 177 | 7.0 | 13.0 | 0.00 | 0.00 | 0.00 | 42 | 1016.9 |
| 20260504181148 | 74 | 213 | 7.0 | 13.0 | 0.00 | 0.00 | 0.00 | 42 | 1016.6 |
| 20260504180647 | 74 | 197 | 6.0 | 11.0 | 0.00 | 0.00 | 0.00 | 42 | 1016.6 |
| 20260504180147 | 75 | 185 | 8.0 | 15.0 | 0.00 | 0.00 | 0.00 | 42 | 1016.9 |
| 20260504175647 | 75 | 195 | 9.0 | 15.0 | 0.00 | 0.00 | 0.00 | 43 | 1016.9 |
| 20260504175147 | 75 | 195 | 8.0 | 15.0 | 0.00 | 0.00 | 0.00 | 44 | 1016.6 |
| 20260504174647 | 75 | 219 | 10.0 | 11.0 | 0.00 | 0.00 | 0.00 | 43 | 1016.9 |
| 20260504174146 | 75 | 205 | 7.0 | 15.0 | 0.00 | 0.00 | 0.00 | 41 | 1017.3 |
| 20260504173646 | 75 | 158 | 8.0 | 10.0 | 0.00 | 0.00 | 0.00 | 44 | 1016.9 |
| 20260504173147 | 75 | 168 | 3.0 | 7.0 | 0.00 | 0.00 | 0.00 | 45 | 1016.6 |
| 20260504172647 | 75 | 207 | 6.0 | 7.0 | 0.00 | 0.00 | 0.00 | 44 | 1016.9 |
| 20260504172147 | 75 | 202 | 7.0 | 11.0 | 0.00 | 0.00 | 0.00 | 44 | 1016.9 |
| 20260504171647 | 75 | 173 | 3.0 | 9.0 | 0.00 | 0.00 | 0.00 | 45 | 1016.9 |
| 20260504171148 | 75 | 161 | 6.0 | 11.0 | 0.00 | 0.00 | 0.00 | 46 | 1016.9 |
| 20260504170650 | 74 | 152 | 9.0 | 14.0 | 0.00 | 0.00 | 0.00 | 45 | 1016.9 |
| 20260504170146 | 75 | 140 | 5.0 | 13.0 | 0.00 | 0.00 | 0.00 | 46 | 1016.9 |
| 20260504160148 | 74 | 165 | 6.0 | 8.0 | 0.00 | 0.00 | 0.00 | 46 | 1017.3 |
| 20260504151147 | 73 | 153 | 6.0 | 9.0 | 0.00 | 0.00 | 0.00 | 49 | 1017.9 |
| 20260504150647 | 72 | 185 | 5.0 | 10.0 | 0.00 | 0.00 | 0.00 | 46 | 1017.9 |
| 20260504150146 | 72 | 168 | 5.0 | 9.0 | 0.00 | 0.00 | 0.00 | 46 | 1017.6 |
| 20260504141149 | 71 | 194 | 4.0 | 5.0 | 0.00 | 0.00 | 0.00 | 56 | 1017.9 |
| 20260504140647 | 70 | 166 | 3.0 | 4.0 | 0.00 | 0.00 | 0.00 | 59 | 1017.9 |
| 20260504140146 | 70 | 152 | 1.0 | 4.0 | 0.00 | 0.00 | 0.00 | 56 | 1017.6 |
| 20260504130648 | 67 | 223 | 3.0 | 3.0 | 0.00 | 0.00 | 0.00 | 66 | 1017.9 |
| 20260504130146 | 66 | 180 | 0.0 | 2.0 | 0.00 | 0.00 | 0.00 | 68 | 1017.6 |
| 20260504120148 | 60 | 162 | 1.0 | 1.0 | 0.00 | 0.00 | 0.00 | 82 | 1017.3 |
| 20260504110646 | 58 | 141 | 0.0 | 2.0 | 0.00 | 0.00 | 0.00 | 85 | 1017.3 |
| 20260504110147 | 58 | 145 | 1.0 | 1.0 | 0.00 | 0.00 | 0.00 | 84 | 1016.9 |
| 20260504100149 | 60 | 193 | 1.0 | 2.0 | 0.00 | 0.00 | 0.00 | 79 | 1017.3 |
| 20260504081646 | 60 | 210 | 1.0 | 1.0 | 0.00 | 0.00 | 0.00 | 79 | 1017.3 |
| 20260504081147 | 60 | 235 | 1.0 | 1.0 | 0.00 | 0.00 | 0.00 | 79 | 1016.9 |
| 20260504080647 | 60 | 174 | 1.0 | 2.0 | 0.00 | 0.00 | 0.00 | 78 | 1017.3 |
| 20260504080147 | 60 | 229 | 0.0 | 1.0 | 0.00 | 0.00 | 0.00 | 78 | 1017.3 |
| 20260504070148 | 62 | 166 | 3.0 | 4.0 | 0.00 | 0.00 | 0.00 | 76 | 1017.6 |
| 20260504060146 | 63 | 197 | 2.0 | 2.0 | 0.00 | 0.00 | 0.00 | 72 | 1018.3 |
| 20260504050646 | 64 | 171 | 3.0 | 5.0 | 0.00 | 0.00 | 0.00 | 66 | 1019.0 |
| 20260504050146 | 64 | 210 | 2.0 | 3.0 | 0.00 | 0.00 | 0.00 | 66 | 1019.0 |
| 20260504045646 | 64 | 203 | 2.0 | 3.0 | 0.00 | 0.00 | 0.00 | 66 | 1019.0 |
| 20260504045147 | 64 | 209 | 3.0 | 4.0 | 0.00 | 0.00 | 0.00 | 66 | 1019.0 |
| 20260504044646 | 64 | 205 | 1.0 | 3.0 | 0.00 | 0.00 | 0.00 | 66 | 1019.0 |